TimeMDT,TemperatureF,Dew PointF,Humidity,Sea Level PressureIn,VisibilityMPH,Wind Direction,Wind SpeedMPH,Gust SpeedMPH,PrecipitationIn,Events,Conditions,WindDirDegrees,DateUTC
12:00 AM,25.5,17.8,72,30.11,-9999.0,East,1.2,-,0.03,,Unknown,90,2013-03-29 06:00:00
1:00 AM,31.1,18.3,59,30.11,-9999.0,SW,8.1,-,N/A,,Unknown,220,2013-03-29 07:00:00
2:00 AM,28.2,16.7,62,30.12,-9999.0,NW,2.3,-,N/A,,Unknown,310,2013-03-29 08:00:00
3:00 AM,27.7,16.5,63,30.14,-9999.0,West,2.3,-,N/A,,Unknown,280,2013-03-29 09:00:00
4:00 AM,27.1,16.3,64,30.14,-9999.0,West,3.5,-,N/A,,Unknown,280,2013-03-29 10:00:00
5:00 AM,26.1,16.2,66,30.16,-9999.0,West,2.3,-,N/A,,Unknown,280,2013-03-29 11:00:00
6:00 AM,25.0,16.0,69,30.17,-9999.0,West,2.3,-,N/A,,Unknown,270,2013-03-29 12:00:00
7:00 AM,24.8,15.4,68,30.19,-9999.0,West,4.6,-,N/A,,Unknown,260,2013-03-29 13:00:00
8:00 AM,24.3,15.1,68,30.23,-9999.0,WSW,4.6,-,N/A,,Unknown,240,2013-03-29 14:00:00
9:00 AM,27.0,14.9,60,30.24,-9999.0,WSW,5.8,-,N/A,,Unknown,240,2013-03-29 15:00:00
10:00 AM,31.6,15.3,51,30.23,-9999.0,SW,8.1,-,N/A,,Unknown,230,2013-03-29 16:00:00
11:00 AM,39.0,18.0,43,30.19,-9999.0,SW,6.9,-,N/A,,Unknown,220,2013-03-29 17:00:00
12:00 PM,45.7,18.5,34,30.14,-9999.0,SSW,5.8,-,N/A,,Unknown,210,2013-03-29 18:00:00
1:00 PM,48.0,16.2,28,30.12,-9999.0,WSW,9.2,18.4,N/A,,Unknown,240,2013-03-29 19:00:00
2:00 PM,48.7,18.9,31,30.13,-9999.0,WSW,8.1,19.6,N/A,,Unknown,250,2013-03-29 20:00:00
3:00 PM,49.8,18.1,29,30.13,-9999.0,WSW,8.1,18.4,N/A,,Unknown,240,2013-03-29 21:00:00
4:00 PM,47.3,19.0,33,30.14,-9999.0,WSW,6.9,-,N/A,,Unknown,240,2013-03-29 22:00:00
5:00 PM,48.6,17.6,29,30.13,-9999.0,WNW,4.6,-,N/A,,Unknown,300,2013-03-29 23:00:00
6:00 PM,47.8,19.9,33,30.14,-9999.0,WSW,10.4,20.7,N/A,,Unknown,240,2013-03-30 00:00:00
7:00 PM,46.0,20.5,36,30.15,-9999.0,WSW,8.1,-,N/A,,Unknown,240,2013-03-30 01:00:00
8:00 PM,42.4,21.6,44,30.17,-9999.0,WSW,4.6,-,N/A,,Unknown,250,2013-03-30 02:00:00
9:00 PM,42.6,21.7,44,30.17,-9999.0,WNW,3.5,-,N/A,,Unknown,300,2013-03-30 03:00:00
10:00 PM,39.0,22.5,52,30.18,-9999.0,West,3.5,-,N/A,,Unknown,260,2013-03-30 04:00:00
11:00 PM,39.2,23.4,53,30.18,-9999.0,WSW,5.8,-,N/A,,Unknown,240,2013-03-30 05:00:00